User: anonymous   Login
Location: Unspecified
(0.0000°N, 0.0000°E)
Time: 00:40:27
(UTC+00:00)
Language:

PROBA 2 - Orbit

View from above orbital plane
View from above orbital plane
View from above satellite
View from above satellite

Ground track
Ground track

The orbit data is extracted from the following two-line orbital elements,

1 36037U 09059B   16206.62755062  .00000010  00000-0  13432-4 0  9998
2 36037  98.2632  39.0626 0012052 264.6276  95.3545 14.52956731356569
Epoch (UTC): 24 July 2016 15:03:40
Eccentricity: 0.0012052
inclination: 98.2632°
perigee height: 707 km
apogee height: 724 km
right ascension of ascending node: 39.0626°
argument of perigee: 264.6276°
revolutions per day: 14.52956731
mean anomaly at epoch: 95.3545°
orbit number at epoch: 35656

The dashed part of the orbit path shows where the satellite is in the earth's shadow,  

DLR